Find Starlink 5098

NORAD ID: 54013 Int'l Des: 2022-125 Owner: SPXS Country: US Constellation: starlink operational
LEOCIRCULAR

リアルタイム位置

3D地球を読み込み中...

Starlink 5098について

説明を読み込み中...

次回通過

Passes for default location (London). Set your location on the main map for personalized predictions.

高度履歴

Loading altitude history...

軌道要素

1 54013U 22125BB 26104.52618448 .00001659 00000-0 12233-3 0 9991
2 54013 53.2180 43.1991 0001417 85.3456 274.7698 15.08828253195016
Epoch: Apr 14, 2026 • Age: 10 hours

現在のステータス

高度 542.8 km
速度 7.60 km/s
衛星直下点 40.68°N, 2.36°W
打ち上げ日 Oct 5, 2022
運用期間 3.5 years
タイプ internet

技術仕様

分類 Payload
質量 305.00 kg
乾燥質量 290.00 kg
総質量 305.00 kg
長さ 0.20 m
直径 2.80 m
スパン 9.00 m
形状 Box + pan
製造者 SPXS
バスタイプ Starlink
フェーズステータス In Orbit
所有者/国 SPXS/US

Most Searched